Regional Weather Roundup
Issued by NWS Columbia, SC

Home | Current Version | Previous Version | Text Only | Print | Product List | Glossary On
Versions: 1 2 3 4 5 6 7 8 9 10 11 12 13 14 15 16 17 18 19 20 21 22 23 24 25 26 27
000
ASUS42 KCAE 190210
RWRCAE
REGIONAL WEATHER ROUNDUP
NATIONAL WEATHER SERVICE COLUMBIA SC
900 PM EST SAT NOV 18 2017

NOTE: "FAIR" INDICATES FEW OR NO CLOUDS BELOW 12,000 FEET WITH NO
SIGNIFICANT WEATHER AND/OR OBSTRUCTIONS TO VISIBILITY.

NOT ALL STATIONS ARE QUALITY CONTROLLED BY THE NATIONAL
WEATHER SERVICE. USE DATA WITH CAUTION...ESPECIALLY
DEWPOINT OBSERVATIONS.

SCZ001>056-GAZ040-063>065-077-190300-
...UPSTATE SOUTH CAROLINA...

CITY           SKY/WX    TMP DP  RH WIND       PRES   REMARKS
ANDERSON       CLOUDY    65  53  65 S20G28    29.67F
LIBERTY        LGT RAIN  56  53  89 NW3       29.68F
SPARTANBURG    CLOUDY    63  50  63 SW8G17    29.67F
CLEMSON        CLOUDY    63  55  75 W10       29.69F
GREENVILLE     CLOUDY    65  52  62 S13       29.68F
GREENWOOD      CLOUDY    66  51  58 S18G24    29.73F
GREER          CLOUDY    64  52  64 SW16G28   29.67F
ROCK HILL      CLOUDY    64  51  62 S18G26    29.68F
CHESTER        CLOUDY    64  48  55 S13G21    29.71F
LAURENS        CLOUDY    64  50  59 S17G24    29.70F


...CENTRAL SOUTH CAROLINA...

CITY           SKY/WX    TMP DP  RH WIND       PRES   REMARKS
COLUMBIA APT   PTCLDY    66  53  63 S9        29.75F
COLUMBIA OWENS PTCLDY    66  50  56 S7        29.77F
MCENTIRE ANGB  PTCLDY    63  51  65 S8        29.77F
ORANGEBURG     PTCLDY    63  52  67 S12       29.79F
SUMTER SHAW    PTCLDY    64  51  62 S12       29.75F
NEWBERRY       CLOUDY    64  52  63 SW9       29.76F
AIKEN          CLOUDY    64  52  63 S14       29.80F
BARNWELL         N/A     68  54  60 S9        29.79F
MANNING        FAIR      63  59  88 MISG      29.80F
CAMDEN         FAIR      63  52  67 S8        29.76F
LANCASTER      CLOUDY    63  50  63 S10       29.72F
WINNSBORO      CLOUDY    63  50  63 S13G20    29.73F


...EASTERN AND COASTAL SOUTH CAROLINA...

CITY           SKY/WX    TMP DP  RH WIND       PRES   REMARKS
MYRTLE BEACH   PTCLDY    64  57  78 SW12      29.84F
N MYRTLE BCH   CLOUDY    64  58  80 SW17      29.82F
CONWAY         FAIR      63  55  77 S8        29.82F
MARION         FAIR      63  54  72 S12       29.79F
HARTSVILLE     FAIR      61  52  72 S9        29.74F
FLORENCE       PTCLDY    64  56  75 S13       29.77F
DARLINGTON     CLOUDY    63  55  75 S12       29.75F
CHARLESTON APT CLEAR     63  59  87 S12       29.84F
MOUNT PLEASANT FAIR      66  59  77 S10       29.85F
WALTERBORO     CLEAR     61  55  82 S8        29.84F
BEAUFORT       CLEAR     65  60  84 S7        29.86F


...EASTERN GEORGIA...

CITY           SKY/WX    TMP DP  RH WIND       PRES   REMARKS
AUGUSTA BUSH F CLOUDY    65  53  65 S9        29.78F
AUGUSTA DANIEL MOCLDY    67  52  58 S14       29.78F
THOMSON        CLOUDY    66  52  60 W12G17    29.81F
WASHINGTON     FAIR      64  52  63 S8        29.73F
CLAXTON        FAIR      65  55  70 SE5       29.84F
SYLVANIA       CLEAR     65  55  72 SW5       29.83F
STATESBORO     CLEAR     66  50  57 S8        29.83F
SAVANNAH       CLEAR     62  58  86 S9        29.87F


...SOUTHERN NORTH CAROLINA...

CITY           SKY/WX    TMP DP  RH WIND       PRES   REMARKS
CHARLOTTE      MOCLDY    64  52  64 S15       29.68F
MONROE         MOCLDY    63  51  65 S12G21    29.68F
WADESBORO      PTCLDY    64  49  59 S8        29.71F
RUTHERFORDTON  LGT RAIN  57  52  82 SW6       29.69F
ASHEVILLE      CLOUDY    56  52  86 S10       29.67F

$$




USA.gov is the U.S. government's official web portal to all federal, state and local government web resources and services.